Tracking 29933 objects as of 2-Dec-2024
HD Live streaming from Space Station
objects crossing your sky now

STARLINK-31406

Track STARLINK-31406 now!
10-day predictions
STARLINK-31406 is classified as:


NORAD ID: 59017
Int'l Code: 2024-036V
Perigee: 481.7 km
Apogee: 483.0 km
Inclination: 53.2 °
Period: 94.1 minutes
Semi major axis: 6853 km
RCS: Unknown
Launch date: February 23, 2024
Source: United States (US)
Launch site: AIR FORCE WESTERN TEST RANGE (AFWTR)
Your satellite tracking list
Your tracking list is empty




NASA's NSSDC Master Catalog

Two Line Element Set (TLE):
1 59017U 24036V   24336.96038156  .00000376  00000-0  24795-4 0  9990
2 59017  53.1590  67.7148 0000893 102.5060 257.6040 15.30202844 44498
Source of the keplerian elements: AFSPC